Vertical_Velocity
-3 -2 -3 -3 -2 -2 -3 -3 -2 -0 0 0 -1 -1 -0 0 1 -0 1 1 1 -1
-1 -1 -1 -1 -2 -3 -2 -1 -0 -0 -0 -0 -0 -1 -0 1 1 -1 -0 1 1 -0
-1 -1 -2 -3 -1 -0 -0 1 0 1 -0 -0 -0 -1 -1 1 1 -1 1 -0 1 1
-0 -2 -1 -1 0 -1 -2 -0 0 -1 -1 -1 -1 -0 1 1 -0 -1 1 1 0 1
-2 -1 0 0 -2 -2 -1 -0 -2 -1 -1 -0 0 -0 0 1 2 -2 -1 1 2 0
-2 -0 -1 -2 -2 -1 -0 -1 -0 -1 -1 -1 -2 -1 -0 -1 -0 -0 -2 -1 -1 -1
0 -1 -3 -3 -1 -2 -2 -1 -1 -1 -1 -0 -1 -1 0 0 0 0 0 -1 -2 -1
-0 -1 -1 -0 -2 -2 -1 -2 -3 -1 0 0 0 -1 -2 -1 -1 -1 1 0 -1 -0
-0 -0 -2 -1 -2 -1 -1 0 -1 0 -2 1 1 3 2 -1 -2 -1 0 0 2 -1
0 -1 -2 -2 -1 0 -2 -1 -2 -2 1 1 3 2 3 1 0 -1 -0 -1 -1 1
1 -2 -1 -0 -1 1 -2 -3 -4 -1 2 0 -0 1 1 2 1 -0 -0 -1 -2 -1
-2 -2 -1 0 -1 -1 -1 1 -1 -0 0 2 -1 -1 -1 -0 2 2 1 -0 -0 -1
-1 -1 -1 -1 -0 -0 -1 -2 3 2 2 -1 -1 -2 -4 -4 -2 -1 -0 3 3 3
-0 -1 -2 -2 -1 -0 0 3 3 2 2 2 -3 -1 -2 -4 -4 -3 -4 -3 0 -0
Height
3074 3068 3061 3055 3048 3042 3035 3028 3021 3014 3007 3000 2993 2987 2980 2974 2967 2961 2954 2948 2942 2935
3072 3065 3059 3053 3047 3040 3032 3025 3017 3010 3002 2996 2989 2982 2974 2967 2960 2953 2947 2939 2932 2925
3069 3063 3058 3051 3045 3038 3030 3022 3014 3007 2999 2992 2984 2976 2969 2961 2954 2945 2938 2930 2923 2918
3069 3063 3057 3051 3044 3036 3028 3020 3012 3003 2995 2987 2979 2971 2963 2955 2946 2937 2930 2923 2917 2912
3068 3063 3057 3050 3042 3035 3027 3018 3009 3000 2992 2984 2975 2967 2958 2949 2940 2931 2924 2918 2913 2908
3068 3062 3056 3048 3041 3033 3025 3016 3007 2998 2988 2979 2970 2961 2951 2942 2934 2927 2920 2914 2908 2904
3067 3061 3054 3047 3040 3032 3023 3014 3005 2995 2986 2976 2967 2957 2947 2938 2931 2923 2916 2910 2905 2900
3067 3061 3054 3047 3039 3031 3022 3013 3003 2994 2985 2976 2965 2954 2943 2935 2927 2920 2914 2908 2903 2898
3067 3061 3054 3047 3039 3030 3021 3012 3003 2993 2983 2974 2964 2954 2943 2934 2926 2919 2912 2907 2902 2896
3067 3061 3054 3046 3038 3029 3020 3011 3002 2993 2984 2974 2965 2954 2944 2934 2925 2918 2911 2904 2899 2894
3068 3061 3055 3047 3039 3030 3020 3010 3001 2993 2984 2975 2965 2954 2943 2933 2925 2917 2910 2903 2897 2891
3068 3062 3055 3048 3039 3030 3021 3012 3002 2993 2984 2976 2965 2955 2944 2933 2925 2917 2909 2901 2895 2888
3068 3062 3056 3048 3039 3031 3022 3013 3005 2996 2987 2977 2967 2957 2945 2934 2925 2917 2908 2901 2894 2887
3069 3063 3056 3049 3041 3034 3026 3018 3009 3000 2989 2979 2969 2958 2947 2936 2924 2914 2906 2900 2894 2887